Tracking 19817 objects as of 21-Aug-2019
HD Live streaming from Space Station
objects crossing your sky now

SL-14 DEB

Track SL-14 DEB now!
10-day predictions


NORAD ID: 39973
Int'l Code: 1987-068CZ
Perigee: 768.4 km
Apogee: 810.2 km
Inclination: 83.0 °
Period: 100.5 minutes
Semi major axis: 7160 km
RCS: 0.0059 m2 (small)
Launch date: August 18, 1987
Source: Commonwealth of Independent States (former USSR) (CIS)
Launch site: PLESETSK MISSILE AND SPACE COMPLEX (PKMTR)

Note: This is SATELLITE DEBRIS
aabbcc
Your satellite tracking list
Your tracking list is empty




NASA's NSSDC Master Catalog

Two Line Element Set (TLE):
1 39973U 87068CZ  19231.03712180 +.00000356 +00000-0 +12336-3 0  9990
2 39973 083.0364 142.6955 0029211 015.5073 344.7003 14.32874979271729
Source of the keplerian elements: AFSPC